sat.trackr.live / text

‹ back to catalog

STARLINK-33900

NORAD 63800 · 2025-091AB

PAYLOAD ACTIVE UNKNOWN

§ Identity

Operator
Country
US
Launch date
2025-05-02
Launch site
AFETR
Launch vehicle
Mass (kg)
RCS (m²)

Purposes: comms

External: N2YO · Heavens-Above · Gunter

§ Orbital elements

Epoch: 2026-09-20T09:51:52.287840Z

Period
94.27 min
Inclination
43.0048°
Eccentricity
0.0000911
Mean motion
15.27588174 rev/d
Perigee alt
482.4 km
Apogee alt
483.6 km
Semi-major
6,861.2 km
B*
1.8138e-4
RAAN
32.7223°
Arg perigee
283.4256°
Mean anomaly
76.6495°
Rev number
7,879

§ Raw data

STARLINK-339001 63800U 25091AB  26263.41102185  .00004733  00000+0  18138-3 0  99952 63800  43.0048  32.7223 0000911 283.4256  76.6495 15.27588174 78794

JSON: /api/v1/satellites/63800 · /tle

For live sub-satellite position, see the globe view (requires WebGL).

§ Visibility from observer

Set your observer location to see the next 7 days of passes ≥ 10°. The values pass through the URL so the page stays shareable.

No JS? Fill the form by hand. The geolocation button needs JavaScript.